Location: Bucharest
(44.4268°N, 26.1025°E)
Time: 20:16:25
(UTC+03:00)

SPROUT - Pass Details

Date: 27 June 2022
Orbit: 588 x 598 km, 97.9° (Epoch: 18 August)

Event Time Altitude Azimuth Distance (km) Brightness Sun altitude
Exits shadow 02:40:00 35° 254° (WSW) 964 ? -19.7°
Maximum altitude 02:40:16 35° 262° (W) 958 ? -19.7°
Drops below altitude 10° 02:44:07 10° 330° (NNW) 1,924 ? -19.5°
Sets 02:46:26 0° 339° (NNW) 2,830 ? -19.3°
